Flag for Egypt Weather past 2 weeks in Alexandria, Egypt

Now
81 °F

Clear.


Feels Like: 84 °F
Forecast: 80 / 86 °F
Wind: 7 mph from North

Location: Alexandria / Nouzha

Current Time: Aug 28, 2015 at 2:51:37 AM

Latest Report: Aug 28, 2015 at 2:00 AM


Visibility: 10 mi

Pressure: 29.83 "Hg

Humidity: 70%

Dew point: 70 °F

Location of AlexandriaLocation

Historic Weather in Alexandria — Graph

°F

Alexandria temperature yesterday

Maximum temperature yesterday: 90 °F (at 10:00 AM)
Minimum temperature yesterday: 73 °F (at 5:00 AM)
Average temperature yesterday: 83 °F

Past Weeks' High & Low Weather Summary

 TemperatureHumidityPressure
High102 °F (Aug 15, 1:00 PM)89% (Aug 14, 4:00 AM)29.95 "Hg (Aug 14, 4:00 AM)
Low72 °F (Aug 19, 4:00 AM)26% (Aug 15, 1:00 PM)29.71 "Hg (Aug 15, 7:00 PM)
Average85 °F61%29.82 "Hg
* Reported Aug 13 1:00 AM — Aug 28 1:00 AM, Alexandria, Weather by CustomWeather, © 2015

Note: Actual official high and low records may vary slightly from our data, if they occured in-between our weather recording intervals... More about our weather records

Advertising

Alexandria weather history for previous 24 hours

 ConditionsComfort  
Time TempWeatherWind HumidityBarometerVisibility
1:00 AM
Fri, Aug 28
81 °FClear.9 mph66%29.86 "Hg10 mi
12:00 AM81 °FClear.10 mph70%29.89 "Hg10 mi
11:00 PM
Thu, Aug 27
82 °FClear.12 mph66%29.86 "Hg10 mi
10:00 PM82 °FClear.12 mph66%29.89 "Hg10 mi
9:00 PM81 °FClear.12 mph70%29.86 "Hg10 mi
8:00 PM82 °FClear.9 mph70%29.89 "Hg10 mi
7:00 PM84 °FClear.12 mph66%29.86 "Hg10 mi
6:00 PM88 °FSunny.16 mph59%29.86 "Hg10 mi
5:00 PM88 °FSunny.15 mph59%29.86 "Hg10 mi
4:00 PM88 °FSunny.12 mph55%29.86 "Hg10 mi
3:00 PM90 °FSunny.13 mph49%29.86 "Hg10 mi
2:00 PM90 °FSunny.8 mph49%29.83 "Hg10 mi
1:00 PM90 °FSunny.8 mph49%29.86 "Hg10 mi
12:00 PM90 °FSunny.7 mph52%29.86 "Hg10 mi
11:00 AM88 °FSunny.6 mph59%29.89 "Hg10 mi
10:00 AM90 °FPassing clouds.1 mph52%29.86 "HgN/A
9:00 AM86 °FPassing clouds.6 mph59%29.86 "HgN/A
8:00 AM84 °FScattered clouds.6 mph66%29.86 "HgN/A
7:00 AM79 °FScattered clouds.3 mph79%29.83 "HgN/A
6:00 AM75 °FScattered clouds.3 mph83%29.80 "HgN/A
5:00 AM73 °FPassing clouds.3 mph89%29.80 "HgN/A
4:00 AM75 °FPassing clouds.3 mph83%29.80 "HgN/A
3:00 AM77 °FPassing clouds.3 mph79%29.80 "HgN/A
2:00 AM79 °FPassing clouds.5 mph79%29.80 "HgN/A
Weather by CustomWeather, © 2015

See weather overviewHow to use our weather pages